Regional Weather Roundup
Issued by NWS Upton, NY

Home | Current Version | Previous Version | Text Only | Print | Product List | Glossary On
Versions: 1 2 3 4 5 6 7 8 9 10 11 12 13 14 15 16 17 18 19 20 21 22 23 24 25 26 27
000
ASUS41 KOKX 291604
RWROKX

REGIONAL WEATHER ROUNDUP
NATIONAL WEATHER SERVICE NEW YORK NY
1200 PM EDT FRI JUL 29 2016

NOTE: "FAIR" INDICATES FEW OR NO CLOUDS BELOW 12,000 FEET WITH NO
SIGNIFICANT WEATHER AND/OR OBSTRUCTIONS TO VISIBILITY.

NYZ071-072-176-178-NJZ106-104-291700-
NEW YORK CITY METRO AREA

CITY           SKY/WX    TMP DP  RH WIND       PRES   REMARKS
Central Park   PTSUNNY   75  68  78 NE10      29.89S
LaGuardia APRT PTSUNNY   77  66  68 NE16      29.85S
Kennedy INTL   PTSUNNY   74  68  81 N13       29.86S
Newark/Liberty PTSUNNY   78  68  71 NE16      29.85S
Bronx Bot Gard   N/A     77  66  69 N2        29.86S
Wall St Helipt CLOUDY    77  70  78 NE15      29.86R
Teterboro      MOSUNNY   79  67  66 NE9       29.85S
$$

NYZ177-179-078>081-291700-
LONG ISLAND NEW YORK

CITY           SKY/WX    TMP DP  RH WIND       PRES   REMARKS
Farmingdale    CLOUDY    73  69  87 NE13      29.85R
MacArthur/ISP  CLOUDY    71  70  96 NE13      29.84S
Shirley        LGT RAIN N/A N/A N/A N8        29.85F
Riverhead      NOT AVBL
Westhampton    LGT RAIN  70  68  93 N15       29.86S FOG
Southhampton     N/A     70  68  94 NE6       29.80S
Bridgehampton    N/A     68  68 100 S2        29.84S
East Hampton   LGT RAIN  69  67  94 NE7       29.85R
Montauk          N/A     69  68  96 NE8       29.87S
$$

NYZ052-065-067-291700-
HUDSON VALLEY

CITY           SKY/WX    TMP DP  RH WIND       PRES   REMARKS
White Plains   CLOUDY    76  69  79 NE6       29.87R
Newburgh       PTSUNNY   77  70  78 CALM      29.90S
Montgomery     MOSUNNY   82  69  64 N9        29.88F
Poughkeepsie   MOSUNNY   82  67  60 N8        29.86F
Albany         PTSUNNY   79  68  69 N8        29.90S
$$

NJZ001-105-106-008-010-013-015-019>022-104-291700-
NEW JERSEY

CITY           SKY/WX    TMP DP  RH WIND       PRES   REMARKS
Newark/Liberty PTSUNNY   78  68  71 NE16      29.85S
Teterboro      MOSUNNY   79  67  66 NE9       29.85S
Caldwell       PTSUNNY   79  68  69 VRB7      29.87S
Morristown     MOSUNNY   79  72  78 E8        29.87S
Somerville     PTSUNNY   82  68  62 N7        29.84S
Linden         PTSUNNY   78  67  68 NE6       29.87S
Sussex         PTSUNNY   80  69  69 NE10      29.88F
Abdover          N/A     79  67  66 NE9       29.88F
Trenton        PTSUNNY   79  68  69 N8        29.85S
Millville      CLOUDY    80  69  69 N13       29.84R
Atlantic City  MOSUNNY   81  71  71 N12       29.82R
Wrightstown    PTSUNNY   77  70  79 N13       29.83R
Toms River     CLOUDY    75  70  84 N12       29.85R
Belmar         CLOUDY    73  70  90 N13       29.85S
$$

PAZ047>061-062-071-291700-
EASTERN PENNSYLVANIA

CITY           SKY/WX    TMP DP  RH WIND       PRES   REMARKS
Philadelphia   MOSUNNY   82  68  62 N16       29.85S
Allentown      MOSUNNY   82  70  66 VRB6      29.88S
Scranton       PTSUNNY   81  68  64 NE8       29.90F
$$

CTZ002-004>006-009-010-012-RIZ004-006-007-MAZ004-011-015-291700-
SOUTHERN NEW ENGLAND
 IN CT

CITY           SKY/WX    TMP DP  RH WIND       PRES   REMARKS
Bradley INTL   MOSUNNY   80  69  69 N7        29.88F
Hartford       CLOUDY    80  70  71 NE6       29.87S
Danbury        CLOUDY    78  67  68 NE8       29.89S
Wtrbury/Oxford PTSUNNY   75  66  73 NE6       29.91S
Bridgeport     LGT RAIN  74  70  87 NE10      29.86S
Meriden        CLOUDY    78  68  71 N7        29.87S
New Haven      LGT RAIN  73  69  87 NE10      29.86F
Chester        LGT RAIN  73  70  88 NE5       29.88S
Groton         RAIN      72  69  90 NE7       29.86S FOG
Wilimantic     LGT RAIN  76  71  85 E5        29.88F

 IN RI

CITY           SKY/WX    TMP DP  RH WIND       PRES   REMARKS
Providence     LGT RAIN  74  71  91 NE6       29.88S FOG
Block Island   RAIN      68  67  96 N13G21      N/A
Westerly       RAIN      71  67  87 N5        29.87F FOG
 IN MA

CITY           SKY/WX    TMP DP  RH WIND       PRES   REMARKS
Boston         LGT RAIN  73  70  90 SE5       29.88S
Worchester     CLOUDY    73  67  81 CALM      29.92S
Westfield      SUNNY     83  65  54 VRB3      29.87F
Provincetown   LGT RAIN  71  71 100 N6        29.88R VSB 1/2
Nantucket      HVY RAIN  70  67  90 N12       29.85F FOG
$$

ANZ330-335-338-340-345-350-353-355-291700-
COASTAL MARINE OBSERVATIONS


STATION/POSITION TIME  SKY/WX   TEMP    WIND        PRES    VSBY  WAVE
                                AIR SEA DIR/SP/G                  HT/PER
                 (UTC)          (F)     (DEG/KT/KT) (MB)    (MI)  (FT/S)
NY HARB ENTRANCE 1550            72 71   10/ 16/ 17 1009.9          3/ 4
20S FIRE ISLAND  1450            71 75   40/ 21/ 27 1008.2          4/ 4
GREAT SOUTH BAY  1500            71 81   20/ 12/ 16   N/A
23 SSW MONTAUK P 1450            70 73   50/ 16/ 19 1010.6          2/ 3
15 E BARNEGAT LI 1500               78                N/A           5/ 5
HUDSON CANYON    1550            80 79              1007.0          2/ 4
KINGS POINT      1500            72 72              1010.9
EXECUTION ROCKS  1500            72      10/ 10/ 14   N/A
CENTRAL LI SOUND NOT AVBL
EASTERN LI SOUND 1500            69 67   20/ 14/ 17   N/A
ROBBINS REEF     1506            73      10/ 14/ 16 1010.0
$$


>>>>>>>>>>>>>>>>>>>>>>>>>>>> KEY <<<<<<<<<<<<<<<<<<<<<<<<<<<
>                                                          <
>     SKY/WX - Sky Condition/Present Weather               <
>     TMP    - Temperature in Fahrenheit                   <
>     DP     - Dew Point in Fahrenheit                     <
>     RH     - Relative Humidity in Percent                <
>     WIND   - Direction (from) and Speed in MPH           <
>     PRES   - Mean Sea Level Pressure (inches of Hg)      <
>     WCI    - Wind Chill Index                            <
>     VSB    - VISIBILITY IN MILES                         <
>     HX     - HEAT INDEX                                  <
>     TC     - TEMPERATURE IN CELSIUS                      <
>     VRB    - VARIABLE WIND DIRECTION                     <
>                                                          <
>>>>>>>>>>>>>>>>>>>>>>>>>>>> KEY <<<<<<<<<<<<<<<<<<<<<<<<<<<




USA.gov is the U.S. government's official web portal to all federal, state and local government web resources and services.